This is the latest recevied weather packets stored in our database for station/object G8LMY. If no packets are shown the sender has not sent any weather packets the latest 10 day(s).
| Time | Temp. | Humidity | Pressure | Rain* | Wind** | Luminosity | Snow |
|---|---|---|---|---|---|---|---|
| 1777475334 | 18.89° C | 34% | 1021.2 hPa | 0 mm | - | - | - |
| 1777474435 | 18.89° C | 33% | 1021.5 hPa | 0 mm | - | - | - |
| 1777473535 | 18.89° C | 30% | 1021.4 hPa | 0 mm | - | - | - |
| 1777471735 | 19.44° C | 30% | 1021.5 hPa | 0 mm | - | - | - |
| 1777470837 | 19.44° C | 30% | 1021.7 hPa | 0 mm | - | - | - |
| 1777469935 | 18.89° C | 31% | 1021.6 hPa | 0 mm | - | - | - |
| 1777469035 | 18.89° C | 32% | 1021.8 hPa | 0 mm | - | - | - |
| 1777468135 | 18.33° C | 32% | 1021.8 hPa | 0 mm | - | - | - |
| 1777467235 | 17.78° C | 35% | 1021.9 hPa | 0 mm | - | - | - |
| 1777466334 | 17.78° C | 33% | 1022.1 hPa | 0 mm | - | - | - |
| 1777465434 | 17.78° C | 33% | 1022.1 hPa | 0 mm | - | - | - |
| 1777464534 | 18.33° C | 34% | 1022.1 hPa | 0 mm | - | - | - |
| 1777463634 | 18.33° C | 38% | 1022.2 hPa | 0 mm | - | - | - |
| 1777462733 | 18.33° C | 37% | 1022.4 hPa | 0 mm | - | - | - |
| 1777460934 | 17.22° C | 39% | 1022.5 hPa | 0 mm | - | - | - |
| 1777459133 | 16.67° C | 42% | 1022.6 hPa | 0 mm | - | - | - |
| 1777458234 | 16.11° C | 43% | 1022.7 hPa | 0 mm | - | - | - |
| 1777457333 | 15.56° C | 45% | 1022.6 hPa | 0 mm | - | - | - |
| 1777455534 | 15° C | 46% | 1022.8 hPa | 0 mm | - | - | - |
| 1777454633 | 14.44° C | 45% | 1022.8 hPa | 0 mm | - | - | - |
| 1777453736 | 14.44° C | 50% | 1022.6 hPa | 0 mm | - | - | - |
| 1777452836 | 13.89° C | 53% | 1022.5 hPa | 0 mm | - | - | - |
| 1777451936 | 13.33° C | 61% | 1022.7 hPa | 0 mm | - | - | - |
| 1777451035 | 12.22° C | 64% | 1022.6 hPa | 0 mm | - | - | - |
| 1777450135 | 11.67° C | 67% | 1022.7 hPa | 0 mm | - | - | - |
* Rain latest hour (hover to see other rain measurements)
** Current wind speed in m/s (hover to see current wind gust speed)